Time,TemperatureF,DewpointF,PressureIn,WindDirection,WindDirectionDegrees,WindSpeedMPH,WindSpeedGustMPH,Humidity,HourlyPrecipIn,Conditions,Clouds,dailyrainin,SolarRadiationWatts/m^2,SoftwareType,DateUTC
2013-10-23 00:01:00,80.4,76.5,29.98,ESE,117,0.0,0.0,88,0.00,,,0.00,0.0,meteohub,2013-10-23 04:01:00,
2013-10-23 00:03:00,80.4,76.5,29.98,ESE,119,0.0,0.0,88,0.00,,,0.00,0.0,meteohub,2013-10-23 04:03:00,
2013-10-23 00:08:00,80.2,76.3,29.98,ESE,119,0.0,0.0,88,0.00,,,0.00,0.0,meteohub,2013-10-23 04:08:00,
2013-10-23 00:13:00,80.2,76.3,29.98,ESE,119,0.0,0.0,88,0.00,,,0.00,0.0,meteohub,2013-10-23 04:13:00,
2013-10-23 00:18:00,80.2,76.3,29.98,ESE,120,0.0,0.0,88,0.00,,,0.00,0.0,meteohub,2013-10-23 04:18:00,
2013-10-23 00:23:00,80.1,76.1,29.98,ESE,119,0.0,0.0,88,0.00,,,0.00,0.0,meteohub,2013-10-23 04:23:00,
2013-10-23 00:28:00,80.1,76.1,29.98,ESE,120,0.0,0.0,88,0.00,,,0.00,0.0,meteohub,2013-10-23 04:28:00,
2013-10-23 00:33:00,79.9,75.9,29.98,ESE,119,0.0,0.0,88,0.00,,,0.00,0.0,meteohub,2013-10-23 04:33:00,
2013-10-23 00:38:00,79.9,75.9,29.98,ESE,119,0.0,0.0,88,0.00,,,0.00,0.0,meteohub,2013-10-23 04:38:00,
2013-10-23 00:43:00,79.9,75.9,29.98,ESE,119,0.0,0.0,88,0.00,,,0.00,0.0,meteohub,2013-10-23 04:43:00,
2013-10-23 00:48:00,79.9,75.9,29.98,ESE,119,0.0,0.0,88,0.00,,,0.00,0.0,meteohub,2013-10-23 04:48:00,
2013-10-23 00:53:00,79.5,75.9,29.98,ESE,120,0.0,0.0,89,0.00,,,0.00,0.0,meteohub,2013-10-23 04:53:00,
2013-10-23 00:58:00,79.5,75.9,29.98,ESE,119,0.0,0.0,89,0.00,,,0.00,0.0,meteohub,2013-10-23 04:58:00,
2013-10-23 01:03:00,79.5,75.9,29.98,ESE,119,0.0,0.0,89,0.00,,,0.00,0.0,meteohub,2013-10-23 05:03:00,
2013-10-23 01:08:00,79.5,75.9,29.98,ESE,119,0.0,0.0,89,0.00,,,0.00,0.0,meteohub,2013-10-23 05:08:00,
2013-10-23 01:13:00,79.5,75.9,29.97,ESE,119,0.0,0.0,89,0.00,,,0.00,0.0,meteohub,2013-10-23 05:13:00,
2013-10-23 01:18:00,79.5,75.9,29.97,ESE,120,0.0,0.0,89,0.00,,,0.00,0.0,meteohub,2013-10-23 05:18:00,
2013-10-23 01:23:00,79.3,75.7,29.97,ESE,119,0.0,0.0,89,0.00,,,0.00,0.0,meteohub,2013-10-23 05:23:00,
2013-10-23 01:28:00,79.3,76.1,29.96,ESE,119,0.0,0.0,90,0.00,,,0.00,0.0,meteohub,2013-10-23 05:28:00,
2013-10-23 01:33:00,79.3,76.1,29.96,ESE,120,0.0,0.0,90,0.00,,,0.00,0.0,meteohub,2013-10-23 05:33:00,
2013-10-23 01:38:00,79.2,75.9,29.96,ESE,119,0.0,0.0,90,0.00,,,0.00,0.0,meteohub,2013-10-23 05:38:00,
2013-10-23 01:43:00,79.2,75.9,29.96,ESE,119,0.0,0.0,90,0.00,,,0.00,0.0,meteohub,2013-10-23 05:43:00,
2013-10-23 01:48:00,79.2,75.9,29.96,ESE,119,0.0,0.0,90,0.00,,,0.00,0.0,meteohub,2013-10-23 05:48:00,
2013-10-23 01:53:00,79.0,76.1,29.96,ESE,119,0.0,0.0,91,0.00,,,0.00,0.0,meteohub,2013-10-23 05:53:00,
2013-10-23 01:58:00,79.0,76.1,29.95,ESE,120,0.0,0.0,91,0.00,,,0.00,0.0,meteohub,2013-10-23 05:58:00,
2013-10-23 02:03:00,79.0,76.1,29.95,ESE,119,0.0,0.0,91,0.00,,,0.00,0.0,meteohub,2013-10-23 06:03:00,
2013-10-23 02:08:00,79.0,76.5,29.95,ESE,114,0.0,0.0,92,0.00,,,0.00,0.0,meteohub,2013-10-23 06:08:00,
2013-10-23 02:13:00,78.8,76.3,29.95,ESE,117,0.0,0.0,92,0.00,,,0.00,0.0,meteohub,2013-10-23 06:13:00,
2013-10-23 02:18:00,78.8,76.3,29.95,ESE,119,0.0,0.0,92,0.00,,,0.00,0.0,meteohub,2013-10-23 06:18:00,
2013-10-23 02:23:00,78.8,76.3,29.95,ESE,119,0.0,0.0,92,0.00,,,0.00,0.0,meteohub,2013-10-23 06:23:00,
2013-10-23 02:28:00,78.8,76.3,29.94,ESE,119,0.0,0.0,92,0.00,,,0.00,0.0,meteohub,2013-10-23 06:28:00,
2013-10-23 02:33:00,78.6,76.1,29.94,ESE,117,0.0,0.0,92,0.00,,,0.00,0.0,meteohub,2013-10-23 06:33:00,
2013-10-23 02:38:00,78.6,76.1,29.94,ESE,119,0.0,0.0,92,0.00,,,0.00,0.0,meteohub,2013-10-23 06:38:00,
2013-10-23 02:43:00,78.4,75.9,29.93,ESE,119,0.0,0.0,92,0.00,,,0.00,0.0,meteohub,2013-10-23 06:43:00,
2013-10-23 02:48:00,78.4,76.3,29.93,ESE,119,0.0,0.0,93,0.00,,,0.00,0.0,meteohub,2013-10-23 06:48:00,
2013-10-23 02:53:00,78.4,76.3,29.93,ESE,119,0.0,0.0,93,0.00,,,0.00,0.0,meteohub,2013-10-23 06:53:00,
2013-10-23 02:58:00,78.3,76.1,29.93,ESE,119,0.0,0.0,93,0.00,,,0.00,0.0,meteohub,2013-10-23 06:58:00,
2013-10-23 03:03:00,78.3,76.1,29.93,ESE,119,0.0,0.0,93,0.00,,,0.00,0.0,meteohub,2013-10-23 07:03:00,
2013-10-23 03:08:00,78.3,76.1,29.93,ESE,119,0.0,0.0,93,0.00,,,0.00,0.0,meteohub,2013-10-23 07:08:00,
2013-10-23 03:13:00,78.3,76.1,29.93,ESE,119,0.0,0.0,93,0.00,,,0.00,0.0,meteohub,2013-10-23 07:13:00,
2013-10-23 03:18:00,78.1,75.9,29.93,ESE,119,0.0,0.0,93,0.00,,,0.00,0.0,meteohub,2013-10-23 07:18:00,
2013-10-23 03:23:00,78.1,76.3,29.93,ESE,119,0.0,0.0,94,0.00,,,0.00,0.0,meteohub,2013-10-23 07:23:00,
2013-10-23 03:28:00,78.1,76.3,29.93,ESE,119,0.0,0.0,94,0.00,,,0.00,0.0,meteohub,2013-10-23 07:28:00,
2013-10-23 03:33:00,78.1,76.3,29.93,ESE,119,0.0,0.0,94,0.00,,,0.00,0.0,meteohub,2013-10-23 07:33:00,
2013-10-23 03:38:00,78.1,76.3,29.93,ESE,119,0.0,0.0,94,0.00,,,0.00,0.0,meteohub,2013-10-23 07:38:00,
2013-10-23 03:43:00,77.9,76.1,29.92,ESE,119,0.0,0.0,94,0.00,,,0.00,0.0,meteohub,2013-10-23 07:43:00,
2013-10-23 03:48:00,77.9,76.3,29.92,ESE,119,0.0,0.0,95,0.00,,,0.00,0.0,meteohub,2013-10-23 07:48:00,
2013-10-23 03:53:00,77.9,76.3,29.92,ESE,119,0.0,0.0,95,0.00,,,0.00,0.0,meteohub,2013-10-23 07:53:00,
2013-10-23 03:58:00,77.9,76.3,29.91,ESE,119,0.0,0.0,95,0.00,,,0.00,0.0,meteohub,2013-10-23 07:58:00,
2013-10-23 04:03:00,77.7,76.1,29.91,ESE,119,0.0,0.0,95,0.00,,,0.00,0.0,meteohub,2013-10-23 08:03:00,
2013-10-23 04:08:00,77.7,76.1,29.91,ESE,120,0.0,0.0,95,0.00,,,0.00,0.0,meteohub,2013-10-23 08:08:00,
2013-10-23 04:13:00,77.7,76.5,29.91,ESE,119,0.0,0.0,96,0.00,,,0.00,0.0,meteohub,2013-10-23 08:13:00,
2013-10-23 04:18:00,77.5,76.3,29.91,ESE,119,0.0,0.0,96,0.00,,,0.00,0.0,meteohub,2013-10-23 08:18:00,
2013-10-23 04:23:00,77.5,76.3,29.91,ESE,119,0.0,0.0,96,0.00,,,0.00,0.0,meteohub,2013-10-23 08:23:00,
2013-10-23 04:28:00,77.5,76.3,29.91,ESE,119,0.0,0.0,96,0.00,,,0.00,0.0,meteohub,2013-10-23 08:28:00,
2013-10-23 04:33:00,77.5,76.3,29.91,ESE,119,0.0,0.0,96,0.00,,,0.00,0.0,meteohub,2013-10-23 08:33:00,
2013-10-23 04:38:00,77.4,76.1,29.91,ESE,119,0.0,0.0,96,0.00,,,0.00,0.0,meteohub,2013-10-23 08:38:00,
2013-10-23 04:43:00,77.4,76.1,29.91,ESE,117,0.0,0.0,96,0.00,,,0.00,0.0,meteohub,2013-10-23 08:43:00,
2013-10-23 04:48:00,77.4,76.1,29.91,ESE,119,0.0,0.0,96,0.00,,,0.00,0.0,meteohub,2013-10-23 08:48:00,
2013-10-23 04:53:00,77.2,75.9,29.91,ESE,119,0.0,0.0,96,0.00,,,0.00,0.0,meteohub,2013-10-23 08:53:00,
2013-10-23 04:58:00,77.2,75.9,29.91,ESE,119,0.0,0.0,96,0.00,,,0.00,0.0,meteohub,2013-10-23 08:58:00,
2013-10-23 05:03:00,77.2,75.9,29.91,ESE,119,0.0,0.0,96,0.00,,,0.00,0.0,meteohub,2013-10-23 09:03:00,
2013-10-23 05:08:00,77.2,75.9,29.91,ESE,119,0.0,0.0,96,0.00,,,0.00,0.0,meteohub,2013-10-23 09:08:00,
2013-10-23 05:13:00,77.0,75.7,29.91,ESE,119,0.0,0.0,96,0.00,,,0.00,0.0,meteohub,2013-10-23 09:13:00,
2013-10-23 05:18:00,77.0,75.7,29.91,ESE,119,0.0,0.0,96,0.00,,,0.00,0.0,meteohub,2013-10-23 09:18:00,
2013-10-23 05:23:00,77.0,76.1,29.91,ESE,119,0.0,0.0,97,0.00,,,0.00,0.0,meteohub,2013-10-23 09:23:00,
2013-10-23 05:28:00,77.0,76.1,29.92,ESE,119,0.0,0.0,97,0.00,,,0.00,0.0,meteohub,2013-10-23 09:28:00,
2013-10-23 05:33:00,76.8,75.9,29.92,ESE,119,0.0,0.0,97,0.00,,,0.00,0.0,meteohub,2013-10-23 09:33:00,
2013-10-23 05:38:00,76.8,75.9,29.92,ESE,119,0.0,0.0,97,0.00,,,0.00,0.0,meteohub,2013-10-23 09:38:00,
2013-10-23 05:43:00,76.8,75.9,29.92,ESE,119,0.0,0.0,97,0.00,,,0.00,0.0,meteohub,2013-10-23 09:43:00,
2013-10-23 05:48:00,76.6,75.7,29.92,ESE,119,0.0,0.0,97,0.00,,,0.00,0.0,meteohub,2013-10-23 09:48:00,
2013-10-23 05:53:00,76.6,75.7,29.92,ESE,119,0.0,0.0,97,0.00,,,0.00,0.0,meteohub,2013-10-23 09:53:00,
2013-10-23 05:58:00,76.6,75.7,29.93,ESE,119,0.0,0.0,97,0.00,,,0.00,0.0,meteohub,2013-10-23 09:58:00,
2013-10-23 06:03:00,76.6,75.7,29.93,ESE,119,0.0,0.0,97,0.00,,,0.00,0.0,meteohub,2013-10-23 10:03:00,
2013-10-23 06:08:00,76.6,75.7,29.93,ESE,119,0.0,0.0,97,0.00,,,0.00,0.0,meteohub,2013-10-23 10:08:00,
2013-10-23 06:13:00,76.6,75.7,29.94,ESE,119,0.0,0.0,97,0.00,,,0.00,0.0,meteohub,2013-10-23 10:13:00,
2013-10-23 06:18:00,76.6,75.7,29.94,ESE,119,0.0,0.0,97,0.00,,,0.00,0.0,meteohub,2013-10-23 10:18:00,
2013-10-23 06:23:00,76.6,75.7,29.94,ESE,119,0.0,0.0,97,0.00,,,0.00,0.0,meteohub,2013-10-23 10:23:00,
2013-10-23 06:28:00,76.6,75.7,29.94,ESE,119,0.0,0.0,97,0.00,,,0.00,5.0,meteohub,2013-10-23 10:28:00,
2013-10-23 06:34:00,76.6,75.7,29.94,ESE,119,0.0,0.0,97,0.00,,,0.00,12.0,meteohub,2013-10-23 10:34:00,
2013-10-23 06:39:00,76.6,75.7,29.94,ESE,119,0.0,0.0,97,0.00,,,0.00,18.0,meteohub,2013-10-23 10:39:00,
2013-10-23 06:44:00,76.6,75.7,29.95,ESE,120,0.0,0.0,97,0.00,,,0.00,37.0,meteohub,2013-10-23 10:44:00,
2013-10-23 06:49:00,76.8,75.9,29.95,ESE,119,0.0,0.0,97,0.00,,,0.00,48.0,meteohub,2013-10-23 10:49:00,
2013-10-23 06:54:00,76.8,75.9,29.95,ESE,119,0.0,0.0,97,0.00,,,0.00,63.0,meteohub,2013-10-23 10:54:00,
2013-10-23 06:59:00,77.0,76.1,29.95,ESE,119,0.0,0.0,97,0.00,,,0.00,60.0,meteohub,2013-10-23 10:59:00,
2013-10-23 07:04:00,77.0,76.5,29.95,ESE,119,0.0,0.0,98,0.00,,,0.00,76.0,meteohub,2013-10-23 11:04:00,
2013-10-23 07:09:00,77.2,76.3,29.95,ESE,119,0.0,0.0,97,0.00,,,0.00,120.0,meteohub,2013-10-23 11:09:00,
2013-10-23 07:14:00,77.4,76.5,29.96,ESE,119,0.0,0.0,97,0.00,,,0.00,144.0,meteohub,2013-10-23 11:14:00,
2013-10-23 07:19:00,77.5,76.6,29.96,ESE,119,0.0,0.0,97,0.00,,,0.00,158.0,meteohub,2013-10-23 11:19:00,
2013-10-23 07:24:00,77.7,76.8,29.96,ESE,119,0.0,0.0,97,0.00,,,0.00,172.0,meteohub,2013-10-23 11:24:00,
2013-10-23 07:29:00,78.1,76.8,29.96,ESE,119,0.0,0.0,96,0.00,,,0.00,195.0,meteohub,2013-10-23 11:29:00,
2013-10-23 07:34:00,78.4,77.2,29.96,ESE,119,2.0,0.0,96,0.00,,,0.00,213.0,meteohub,2013-10-23 11:34:00,
2013-10-23 07:39:00,78.8,77.2,29.96,ESE,119,0.0,4.0,95,0.00,,,0.00,225.0,meteohub,2013-10-23 11:39:00,
2013-10-23 07:44:00,79.2,77.4,29.96,ESE,119,0.0,4.0,94,0.00,,,0.00,255.0,meteohub,2013-10-23 11:44:00,
2013-10-23 07:49:00,79.5,77.4,29.96,ESE,120,0.0,4.0,93,0.00,,,0.00,274.0,meteohub,2013-10-23 11:49:00,
2013-10-23 07:54:00,80.1,77.5,29.96,ESE,119,0.0,3.0,92,0.00,,,0.00,297.0,meteohub,2013-10-23 11:54:00,
2013-10-23 07:59:00,80.4,77.2,29.96,ESE,119,0.0,0.0,90,0.00,,,0.00,320.0,meteohub,2013-10-23 11:59:00,
2013-10-23 08:04:00,81.1,77.2,29.96,ESE,119,0.0,0.0,88,0.00,,,0.00,338.0,meteohub,2013-10-23 12:04:00,
2013-10-23 08:09:00,81.7,77.0,29.96,ESE,123,3.0,0.0,86,0.00,,,0.00,361.0,meteohub,2013-10-23 12:09:00,
2013-10-23 08:14:00,82.2,76.8,29.96,SE,127,0.0,6.0,84,0.00,,,0.00,384.0,meteohub,2013-10-23 12:14:00,
2013-10-23 08:19:00,82.6,76.8,29.96,SE,133,6.0,9.0,83,0.00,,,0.00,403.0,meteohub,2013-10-23 12:19:00,
2013-10-23 08:24:00,83.1,77.0,29.96,SE,133,0.0,9.0,82,0.00,,,0.00,424.0,meteohub,2013-10-23 12:24:00,
2013-10-23 08:29:00,83.7,76.8,29.97,SE,134,0.0,9.0,80,0.00,,,0.00,440.0,meteohub,2013-10-23 12:29:00,
2013-10-23 08:34:00,84.0,77.2,29.97,ESE,106,0.0,7.0,80,0.00,,,0.00,456.0,meteohub,2013-10-23 12:34:00,
2013-10-23 08:39:00,84.0,76.5,29.97,ESE,112,0.0,7.0,78,0.00,,,0.00,475.0,meteohub,2013-10-23 12:39:00,
2013-10-23 08:44:00,84.6,77.0,29.97,ESE,112,0.0,7.0,78,0.00,,,0.00,484.0,meteohub,2013-10-23 12:44:00,
2013-10-23 08:49:00,84.7,76.6,29.97,ESE,112,0.0,7.0,77,0.00,,,0.00,494.0,meteohub,2013-10-23 12:49:00,
2013-10-23 08:54:00,85.1,77.0,29.97,ESE,104,0.0,6.0,77,0.00,,,0.00,517.0,meteohub,2013-10-23 12:54:00,
2013-10-23 08:59:00,85.5,77.4,29.98,ESE,103,0.0,6.0,77,0.00,,,0.00,530.0,meteohub,2013-10-23 12:59:00,
2013-10-23 09:04:00,85.8,77.0,29.98,ESE,116,0.0,5.0,75,0.00,,,0.00,549.0,meteohub,2013-10-23 13:04:00,
2013-10-23 09:09:00,86.2,77.0,29.98,ESE,119,0.0,6.0,74,0.00,,,0.00,558.0,meteohub,2013-10-23 13:09:00,
2013-10-23 09:14:00,86.5,76.8,29.98,SE,124,0.0,7.0,73,0.00,,,0.00,577.0,meteohub,2013-10-23 13:14:00,
2013-10-23 09:19:00,86.7,77.0,29.98,ESE,120,2.0,7.0,73,0.00,,,0.00,595.0,meteohub,2013-10-23 13:19:00,
2013-10-23 09:24:00,87.3,77.5,29.98,East,88,0.0,7.0,73,0.00,,,0.00,609.0,meteohub,2013-10-23 13:24:00,
2013-10-23 09:29:00,87.6,77.5,29.98,SE,138,8.0,8.0,72,0.00,,,0.00,621.0,meteohub,2013-10-23 13:29:00,
2013-10-23 09:34:00,87.8,77.2,29.98,SE,128,1.0,6.0,71,0.00,,,0.00,655.0,meteohub,2013-10-23 13:34:00,
2013-10-23 09:39:00,88.0,77.4,29.98,SE,126,3.0,8.0,71,0.00,,,0.00,667.0,meteohub,2013-10-23 13:39:00,
2013-10-23 09:44:00,88.2,77.5,29.98,SE,130,0.0,8.0,71,0.00,,,0.00,669.0,meteohub,2013-10-23 13:44:00,
2013-10-23 09:49:00,88.2,77.5,29.98,ENE,66,0.0,8.0,71,0.00,,,0.00,693.0,meteohub,2013-10-23 13:49:00,
2013-10-23 09:54:00,88.3,77.4,29.98,ESE,120,0.0,8.0,70,0.00,,,0.00,192.0,meteohub,2013-10-23 13:54:00,
2013-10-23 09:59:00,88.3,77.4,29.98,SSE,157,0.0,8.0,70,0.00,,,0.00,121.0,meteohub,2013-10-23 13:59:00,
2013-10-23 10:04:00,88.2,77.5,29.98,SE,144,0.0,10.0,71,0.00,,,0.00,190.0,meteohub,2013-10-23 14:04:00,
2013-10-23 10:09:00,88.0,77.4,29.98,East,85,5.0,10.0,71,0.00,,,0.00,797.0,meteohub,2013-10-23 14:09:00,
2013-10-23 10:14:00,88.2,77.2,29.98,East,96,1.0,10.0,70,0.00,,,0.00,192.0,meteohub,2013-10-23 14:14:00,
2013-10-23 10:19:00,88.3,77.7,29.98,ESE,114,0.0,8.0,71,0.00,,,0.00,223.0,meteohub,2013-10-23 14:19:00,
2013-10-23 10:24:00,88.3,77.7,29.98,SE,131,0.0,8.0,71,0.00,,,0.00,172.0,meteohub,2013-10-23 14:24:00,
2013-10-23 10:29:00,88.0,77.4,29.97,SSE,157,0.0,8.0,71,0.00,,,0.00,160.0,meteohub,2013-10-23 14:29:00,
2013-10-23 10:34:00,87.6,77.5,29.97,SSE,151,0.0,7.0,72,0.00,,,0.00,139.0,meteohub,2013-10-23 14:34:00,
2013-10-23 10:39:00,87.4,77.7,29.97,ESE,110,7.0,7.0,73,0.00,,,0.00,169.0,meteohub,2013-10-23 14:39:00,
2013-10-23 10:44:00,87.4,78.1,29.97,SSE,158,0.0,9.0,74,0.00,,,0.00,785.0,meteohub,2013-10-23 14:44:00,
2013-10-23 10:49:00,87.6,78.3,29.97,SE,126,8.0,9.0,74,0.00,,,0.00,735.0,meteohub,2013-10-23 14:49:00,
2013-10-23 10:54:00,88.2,78.4,29.97,SE,136,10.0,11.0,73,0.00,,,0.00,514.0,meteohub,2013-10-23 14:54:00,
2013-10-23 10:59:00,88.2,77.9,29.96,SE,140,0.0,13.0,72,0.00,,,0.00,873.0,meteohub,2013-10-23 14:59:00,
2013-10-23 11:04:00,88.3,77.7,29.96,SE,124,5.0,13.0,71,0.00,,,0.00,185.0,meteohub,2013-10-23 15:04:00,
2013-10-23 11:09:00,88.5,78.3,29.96,East,97,0.0,13.0,72,0.00,,,0.00,218.0,meteohub,2013-10-23 15:09:00,
2013-10-23 11:14:00,88.5,78.3,29.96,SE,127,0.0,11.0,72,0.00,,,0.00,1042.0,meteohub,2013-10-23 15:14:00,
2013-10-23 11:19:00,89.1,78.8,29.96,East,96,0.0,8.0,72,0.00,,,0.00,1006.0,meteohub,2013-10-23 15:19:00,
2013-10-23 11:24:00,89.2,78.1,29.96,ESE,117,0.0,8.0,70,0.00,,,0.00,269.0,meteohub,2013-10-23 15:24:00,
2013-10-23 11:29:00,89.2,78.1,29.96,East,97,0.0,10.0,70,0.00,,,0.00,301.0,meteohub,2013-10-23 15:29:00,
2013-10-23 11:34:00,89.4,77.9,29.96,East,100,6.0,10.0,69,0.00,,,0.00,943.0,meteohub,2013-10-23 15:34:00,
2013-10-23 11:39:00,90.0,77.9,29.96,SSE,152,2.0,11.0,68,0.00,,,0.00,911.0,meteohub,2013-10-23 15:39:00,
2013-10-23 11:44:00,90.1,75.4,29.95,SSE,150,11.0,11.0,62,0.00,,,0.00,899.0,meteohub,2013-10-23 15:44:00,
2013-10-23 11:49:00,90.5,75.2,29.95,SSE,152,6.0,14.0,61,0.00,,,0.00,882.0,meteohub,2013-10-23 15:49:00,
2013-10-23 11:54:00,90.5,75.7,29.95,SSE,155,0.0,14.0,62,0.00,,,0.00,873.0,meteohub,2013-10-23 15:54:00,
2013-10-23 11:59:00,90.7,74.3,29.94,SE,131,11.0,14.0,59,0.00,,,0.00,688.0,meteohub,2013-10-23 15:59:00,
2013-10-23 12:04:00,90.5,74.7,29.94,SSE,168,2.0,20.0,60,0.00,,,0.00,871.0,meteohub,2013-10-23 16:04:00,
2013-10-23 12:09:00,90.5,76.1,29.94,South,182,1.0,20.0,63,0.00,,,0.00,890.0,meteohub,2013-10-23 16:09:00,
2013-10-23 12:14:00,90.5,74.1,29.94,South,169,6.0,18.0,59,0.00,,,0.00,887.0,meteohub,2013-10-23 16:14:00,
2013-10-23 12:19:00,90.5,74.7,29.94,SSE,162,11.0,16.0,60,0.00,,,0.00,869.0,meteohub,2013-10-23 16:19:00,
2013-10-23 12:24:00,90.3,75.6,29.94,SSW,195,0.0,13.0,62,0.00,,,0.00,885.0,meteohub,2013-10-23 16:24:00,
2013-10-23 12:29:00,90.7,75.4,29.93,South,188,2.0,13.0,61,0.00,,,0.00,871.0,meteohub,2013-10-23 16:29:00,
2013-10-23 12:34:00,91.0,75.7,29.93,South,171,5.0,13.0,61,0.00,,,0.00,924.0,meteohub,2013-10-23 16:34:00,
2013-10-23 12:39:00,91.0,76.3,29.93,SE,134,0.0,11.0,62,0.00,,,0.00,192.0,meteohub,2013-10-23 16:39:00,
2013-10-23 12:44:00,90.7,74.8,29.92,SE,138,8.0,11.0,60,0.00,,,0.00,873.0,meteohub,2013-10-23 16:44:00,
2013-10-23 12:49:00,90.7,75.4,29.92,South,172,7.0,13.0,61,0.00,,,0.00,876.0,meteohub,2013-10-23 16:49:00,
2013-10-23 12:54:00,90.7,75.4,29.92,SE,137,6.0,14.0,61,0.00,,,0.00,873.0,meteohub,2013-10-23 16:54:00,
2013-10-23 12:59:00,91.2,76.3,29.91,ESE,114,6.0,14.0,62,0.00,,,0.00,892.0,meteohub,2013-10-23 16:59:00,
2013-10-23 13:04:00,91.4,75.0,29.91,ESE,114,8.0,14.0,59,0.00,,,0.00,906.0,meteohub,2013-10-23 17:04:00,
2013-10-23 13:09:00,91.6,75.2,29.91,SSE,148,0.0,14.0,59,0.00,,,0.00,901.0,meteohub,2013-10-23 17:09:00,
2013-10-23 13:14:00,92.1,75.7,29.91,SSE,155,4.0,14.0,59,0.00,,,0.00,961.0,meteohub,2013-10-23 17:14:00,
2013-10-23 13:19:00,92.3,77.4,29.91,ESE,107,11.0,14.0,62,0.00,,,0.00,992.0,meteohub,2013-10-23 17:19:00,
2013-10-23 13:24:00,92.3,77.9,29.91,SE,138,0.0,13.0,63,0.00,,,0.00,1006.0,meteohub,2013-10-23 17:24:00,
2013-10-23 13:29:00,92.3,78.3,29.90,East,90,7.0,13.0,64,0.00,,,0.00,382.0,meteohub,2013-10-23 17:29:00,
2013-10-23 13:34:00,92.1,78.3,29.90,SE,137,6.0,13.0,64,0.00,,,0.00,218.0,meteohub,2013-10-23 17:34:00,
2013-10-23 13:39:00,91.4,77.9,29.90,East,82,6.0,16.0,65,0.00,,,0.00,181.0,meteohub,2013-10-23 17:39:00,
2013-10-23 13:44:00,90.5,78.1,29.90,ESE,121,5.0,16.0,67,0.00,,,0.00,162.0,meteohub,2013-10-23 17:44:00,
2013-10-23 13:49:00,89.8,78.3,29.90,SE,144,14.0,17.0,69,0.00,,,0.00,95.0,meteohub,2013-10-23 17:49:00,
2013-10-23 13:54:00,87.4,79.7,29.90,SE,143,12.0,17.0,78,0.00,,,0.00,197.0,meteohub,2013-10-23 17:54:00,
2013-10-23 13:59:00,85.1,79.0,29.91,SSE,160,11.0,107.0,82,0.07,,,0.07,862.0,meteohub,2013-10-23 17:59:00,
2013-10-23 14:04:00,83.5,78.1,29.91,ESE,107,5.0,107.0,84,0.10,,,0.10,310.0,meteohub,2013-10-23 18:04:00,
2013-10-23 14:09:00,82.6,77.9,29.91,SE,131,5.0,107.0,86,0.11,,,0.11,364.0,meteohub,2013-10-23 18:09:00,
2013-10-23 14:14:00,82.4,78.1,29.91,SE,131,0.0,21.0,87,0.11,,,0.11,449.0,meteohub,2013-10-23 18:14:00,
2013-10-23 14:19:00,82.0,78.1,29.91,ESE,117,0.0,21.0,88,0.11,,,0.11,334.0,meteohub,2013-10-23 18:19:00,
2013-10-23 14:24:00,82.0,78.1,29.91,SSE,154,0.0,16.0,88,0.11,,,0.11,378.0,meteohub,2013-10-23 18:24:00,
2013-10-23 14:29:00,81.9,77.9,29.91,SSE,152,0.0,11.0,88,0.11,,,0.11,345.0,meteohub,2013-10-23 18:29:00,
2013-10-23 14:34:00,81.9,77.9,29.91,ESE,119,0.0,11.0,88,0.11,,,0.11,266.0,meteohub,2013-10-23 18:34:00,
2013-10-23 14:39:00,82.0,78.1,29.91,SE,124,6.0,6.0,88,0.11,,,0.11,222.0,meteohub,2013-10-23 18:39:00,
2013-10-23 14:44:00,82.0,77.7,29.91,ESE,102,0.0,6.0,87,0.11,,,0.11,220.0,meteohub,2013-10-23 18:44:00,
2013-10-23 14:49:00,82.2,77.9,29.91,ESE,119,0.0,8.0,87,0.11,,,0.11,236.0,meteohub,2013-10-23 18:49:00,
2013-10-23 14:54:00,82.6,78.3,29.91,South,171,0.0,8.0,87,0.11,,,0.11,230.0,meteohub,2013-10-23 18:54:00,
2013-10-23 14:59:00,82.8,78.1,29.90,SSE,168,0.0,6.0,86,0.03,,,0.11,282.0,meteohub,2013-10-23 18:59:00,
2013-10-23 15:04:00,83.5,78.8,29.90,South,171,0.0,6.0,86,0.01,,,0.11,255.0,meteohub,2013-10-23 19:04:00,
2013-10-23 15:09:00,83.7,78.6,29.90,SE,133,0.0,6.0,85,0.00,,,0.11,229.0,meteohub,2013-10-23 19:09:00,
2013-10-23 15:14:00,83.8,78.4,29.90,SE,126,0.0,10.0,84,0.00,,,0.11,188.0,meteohub,2013-10-23 19:14:00,
2013-10-23 15:19:00,84.0,78.3,29.90,SE,137,5.0,10.0,83,0.00,,,0.11,162.0,meteohub,2013-10-23 19:19:00,
2013-10-23 15:24:00,84.4,78.6,29.90,SE,136,0.0,10.0,83,0.00,,,0.11,187.0,meteohub,2013-10-23 19:24:00,
2013-10-23 15:29:00,84.6,78.8,29.90,SSE,165,0.0,8.0,83,0.00,,,0.11,178.0,meteohub,2013-10-23 19:29:00,
2013-10-23 15:34:00,84.7,78.6,29.90,SSE,165,0.0,8.0,82,0.00,,,0.11,213.0,meteohub,2013-10-23 19:34:00,
2013-10-23 15:39:00,84.9,78.8,29.90,SSE,148,0.0,6.0,82,0.00,,,0.11,234.0,meteohub,2013-10-23 19:39:00,
2013-10-23 15:44:00,85.1,78.6,29.90,SSE,147,0.0,6.0,81,0.00,,,0.11,487.0,meteohub,2013-10-23 19:44:00,
2013-10-23 15:49:00,85.3,78.8,29.90,SSE,148,0.0,6.0,81,0.00,,,0.11,422.0,meteohub,2013-10-23 19:49:00,
2013-10-23 15:54:00,85.6,79.2,29.90,SSE,147,0.0,6.0,81,0.00,,,0.11,333.0,meteohub,2013-10-23 19:54:00,
2013-10-23 15:59:00,85.6,78.8,29.90,SSE,164,0.0,1.0,80,0.00,,,0.11,257.0,meteohub,2013-10-23 19:59:00,
2013-10-23 16:04:00,85.8,79.0,29.90,SSE,157,0.0,1.0,80,0.00,,,0.11,239.0,meteohub,2013-10-23 20:04:00,
2013-10-23 16:09:00,85.8,78.6,29.90,SE,143,0.0,5.0,79,0.00,,,0.11,209.0,meteohub,2013-10-23 20:09:00,
2013-10-23 16:14:00,86.2,79.0,29.90,SE,130,4.0,6.0,79,0.00,,,0.11,162.0,meteohub,2013-10-23 20:14:00,
2013-10-23 16:19:00,86.2,79.3,29.90,SE,130,0.0,6.0,80,0.00,,,0.11,121.0,meteohub,2013-10-23 20:19:00,
2013-10-23 16:24:00,86.2,79.0,29.90,ESE,119,0.0,6.0,79,0.00,,,0.11,155.0,meteohub,2013-10-23 20:24:00,
2013-10-23 16:29:00,86.2,78.4,29.90,ESE,113,5.0,6.0,78,0.00,,,0.11,148.0,meteohub,2013-10-23 20:29:00,
2013-10-23 16:35:00,86.2,78.4,29.90,SE,128,4.0,6.0,78,0.00,,,0.11,146.0,meteohub,2013-10-23 20:35:00,
2013-10-23 16:40:00,86.2,78.4,29.90,SE,136,7.0,7.0,78,0.00,,,0.11,120.0,meteohub,2013-10-23 20:40:00,
2013-10-23 16:45:00,86.2,78.4,29.91,ESE,102,0.0,8.0,78,0.00,,,0.11,107.0,meteohub,2013-10-23 20:45:00,
2013-10-23 16:50:00,86.2,78.4,29.91,SE,144,0.0,10.0,78,0.00,,,0.11,97.0,meteohub,2013-10-23 20:50:00,
2013-10-23 16:55:00,85.8,78.1,29.91,SE,130,2.0,11.0,78,0.00,,,0.11,84.0,meteohub,2013-10-23 20:55:00,
2013-10-23 17:00:00,85.8,78.6,29.91,SE,126,5.0,11.0,79,0.00,,,0.11,76.0,meteohub,2013-10-23 21:00:00,
2013-10-23 17:05:00,85.6,78.4,29.91,SE,133,0.0,11.0,79,0.00,,,0.11,69.0,meteohub,2013-10-23 21:05:00,
2013-10-23 17:10:00,85.6,78.4,29.91,ESE,112,0.0,9.0,79,0.00,,,0.11,63.0,meteohub,2013-10-23 21:10:00,
2013-10-23 17:15:00,85.5,78.3,29.91,ESE,117,5.0,8.0,79,0.00,,,0.11,55.0,meteohub,2013-10-23 21:15:00,
2013-10-23 17:20:00,85.3,78.1,29.91,ESE,119,6.0,8.0,79,0.00,,,0.11,46.0,meteohub,2013-10-23 21:20:00,
2013-10-23 17:25:00,85.3,78.1,29.91,ESE,120,0.0,10.0,79,0.00,,,0.11,39.0,meteohub,2013-10-23 21:25:00,
2013-10-23 17:30:00,85.1,78.3,29.92,ESE,120,0.0,10.0,80,0.00,,,0.11,37.0,meteohub,2013-10-23 21:30:00,
2013-10-23 17:35:00,85.1,78.3,29.92,ESE,119,3.0,8.0,80,0.00,,,0.11,23.0,meteohub,2013-10-23 21:35:00,
2013-10-23 17:40:00,84.9,78.4,29.92,ESE,114,0.0,8.0,81,0.00,,,0.11,23.0,meteohub,2013-10-23 21:40:00,
2013-10-23 17:45:00,84.7,78.3,29.92,SE,134,7.0,8.0,81,0.00,,,0.11,18.0,meteohub,2013-10-23 21:45:00,
2013-10-23 17:50:00,84.7,78.6,29.92,SE,124,0.0,8.0,82,0.00,,,0.11,11.0,meteohub,2013-10-23 21:50:00,
2013-10-23 17:55:00,84.6,78.4,29.92,ESE,113,3.0,8.0,82,0.00,,,0.11,5.0,meteohub,2013-10-23 21:55:00,
2013-10-23 18:00:00,84.4,78.3,29.93,SE,133,2.0,8.0,82,0.00,,,0.11,0.0,meteohub,2013-10-23 22:00:00,
2013-10-23 18:05:00,84.4,78.3,29.93,ESE,117,0.0,7.0,82,0.00,,,0.11,0.0,meteohub,2013-10-23 22:05:00,
2013-10-23 18:10:00,84.0,78.3,29.93,SE,143,0.0,7.0,83,0.00,,,0.11,0.0,meteohub,2013-10-23 22:10:00,
2013-10-23 18:15:00,84.0,78.3,29.93,SE,130,4.0,7.0,83,0.00,,,0.11,0.0,meteohub,2013-10-23 22:15:00,
2013-10-23 18:20:00,84.0,78.3,29.93,ESE,107,4.0,11.0,83,0.00,,,0.11,0.0,meteohub,2013-10-23 22:20:00,
2013-10-23 18:25:00,84.0,78.3,29.93,SE,124,8.0,11.0,83,0.00,,,0.11,0.0,meteohub,2013-10-23 22:25:00,
2013-10-23 18:30:00,83.8,78.1,29.93,ESE,104,7.0,11.0,83,0.00,,,0.11,0.0,meteohub,2013-10-23 22:30:00,
2013-10-23 18:35:00,83.8,78.1,29.93,ESE,112,1.0,12.0,83,0.00,,,0.11,0.0,meteohub,2013-10-23 22:35:00,
2013-10-23 18:40:00,83.7,77.9,29.93,ESE,116,0.0,12.0,83,0.00,,,0.11,0.0,meteohub,2013-10-23 22:40:00,
2013-10-23 18:45:00,83.7,78.3,29.93,SE,143,0.0,12.0,84,0.00,,,0.11,0.0,meteohub,2013-10-23 22:45:00,
2013-10-23 18:50:00,83.5,78.1,29.93,SSE,147,0.0,8.0,84,0.00,,,0.11,0.0,meteohub,2013-10-23 22:50:00,
2013-10-23 18:55:00,83.5,78.1,29.93,SSW,213,7.0,8.0,84,0.00,,,0.11,0.0,meteohub,2013-10-23 22:55:00,
2013-10-23 19:00:00,83.1,77.7,29.94,SSW,199,2.0,7.0,84,0.00,,,0.11,0.0,meteohub,2013-10-23 23:00:00,
2013-10-23 19:05:00,82.9,77.9,29.94,SSE,168,0.0,10.0,85,0.00,,,0.11,0.0,meteohub,2013-10-23 23:05:00,
2013-10-23 19:10:00,82.6,77.5,29.94,SSE,168,0.0,10.0,85,0.00,,,0.11,0.0,meteohub,2013-10-23 23:10:00,
2013-10-23 19:15:00,82.6,77.9,29.94,South,174,0.0,6.0,86,0.00,,,0.11,0.0,meteohub,2013-10-23 23:15:00,
2013-10-23 19:20:00,82.4,77.7,29.94,SSE,157,0.0,6.0,86,0.00,,,0.11,0.0,meteohub,2013-10-23 23:20:00,
2013-10-23 19:25:00,82.2,77.5,29.94,SE,138,0.0,0.0,86,0.00,,,0.11,0.0,meteohub,2013-10-23 23:25:00,
2013-10-23 19:30:00,82.0,77.4,29.95,SE,141,0.0,0.0,86,0.00,,,0.11,0.0,meteohub,2013-10-23 23:30:00,
2013-10-23 19:35:00,81.9,77.2,29.95,SSE,161,0.0,0.0,86,0.00,,,0.11,0.0,meteohub,2013-10-23 23:35:00,
2013-10-23 19:40:00,81.9,77.2,29.95,SSE,162,0.0,0.0,86,0.00,,,0.11,0.0,meteohub,2013-10-23 23:40:00,
2013-10-23 19:45:00,81.9,77.2,29.95,SSE,164,0.0,0.0,86,0.00,,,0.11,0.0,meteohub,2013-10-23 23:45:00,
2013-10-23 19:50:00,81.9,77.5,29.95,SSE,161,0.0,0.0,87,0.00,,,0.11,0.0,meteohub,2013-10-23 23:50:00,
2013-10-23 19:55:00,81.7,77.4,29.95,SSE,161,0.0,0.0,87,0.00,,,0.11,0.0,meteohub,2013-10-23 23:55:00,
2013-10-23 20:00:00,81.7,77.4,29.96,SSE,157,0.0,0.0,87,0.00,,,0.11,0.0,meteohub,2013-10-24 00:00:00,
2013-10-23 20:05:00,81.3,77.0,29.96,SSW,200,0.0,0.0,87,0.00,,,0.11,0.0,meteohub,2013-10-24 00:05:00,
2013-10-23 20:10:00,81.3,77.4,29.96,SSW,202,0.0,0.0,88,0.00,,,0.11,0.0,meteohub,2013-10-24 00:10:00,
2013-10-23 20:15:00,81.1,77.2,29.97,SSW,202,0.0,0.0,88,0.00,,,0.11,0.0,meteohub,2013-10-24 00:15:00,
2013-10-23 20:20:00,81.1,77.2,29.97,South,184,0.0,0.0,88,0.00,,,0.11,0.0,meteohub,2013-10-24 00:20:00,
2013-10-23 20:25:00,81.0,77.0,29.97,South,178,0.0,5.0,88,0.00,,,0.11,0.0,meteohub,2013-10-24 00:25:00,
2013-10-23 20:30:00,81.0,77.4,29.98,South,182,7.0,7.0,89,0.00,,,0.11,0.0,meteohub,2013-10-24 00:30:00,
2013-10-23 20:35:00,80.4,76.8,29.98,SW,233,0.0,10.0,89,0.00,,,0.11,0.0,meteohub,2013-10-24 00:35:00,
2013-10-23 20:40:00,79.9,75.9,29.98,South,185,5.0,11.0,88,0.00,,,0.11,0.0,meteohub,2013-10-24 00:40:00,
2013-10-23 20:45:00,79.9,76.3,29.99,South,172,4.0,11.0,89,0.00,,,0.11,0.0,meteohub,2013-10-24 00:45:00,
2013-10-23 20:50:00,79.3,76.1,29.99,SSE,160,5.0,14.0,90,0.00,,,0.11,0.0,meteohub,2013-10-24 00:50:00,
2013-10-23 20:55:00,78.6,76.1,29.99,SSE,164,0.0,14.0,92,0.01,,,0.12,0.0,meteohub,2013-10-24 00:55:00,
2013-10-23 21:00:00,78.1,75.9,29.99,South,188,0.0,14.0,93,0.01,,,0.12,0.0,meteohub,2013-10-24 01:00:00,
2013-10-23 21:05:00,77.7,75.6,29.99,SSW,199,0.0,14.0,93,0.01,,,0.12,0.0,meteohub,2013-10-24 01:05:00,
2013-10-23 21:10:00,77.7,75.9,29.99,SW,220,0.0,8.0,94,0.01,,,0.12,0.0,meteohub,2013-10-24 01:10:00,
2013-10-23 21:15:00,77.5,75.9,29.98,SSW,212,0.0,4.0,95,0.01,,,0.12,0.0,meteohub,2013-10-24 01:15:00,
2013-10-23 21:20:00,77.5,75.9,29.98,SW,216,0.0,0.0,95,0.01,,,0.12,0.0,meteohub,2013-10-24 01:20:00,
2013-10-23 21:25:00,77.4,75.7,29.98,SW,217,0.0,0.0,95,0.01,,,0.12,0.0,meteohub,2013-10-24 01:25:00,
2013-10-23 21:30:00,77.2,75.6,29.98,SW,217,0.0,0.0,95,0.01,,,0.12,0.0,meteohub,2013-10-24 01:30:00,
2013-10-23 21:35:00,77.2,75.6,29.98,SW,217,0.0,0.0,95,0.01,,,0.12,0.0,meteohub,2013-10-24 01:35:00,
2013-10-23 21:40:00,77.0,75.4,29.98,SSW,210,0.0,0.0,95,0.01,,,0.12,0.0,meteohub,2013-10-24 01:40:00,
2013-10-23 21:45:00,76.8,75.2,29.99,SW,217,0.0,0.0,95,0.01,,,0.12,0.0,meteohub,2013-10-24 01:45:00,
2013-10-23 21:50:00,76.8,75.2,29.99,SW,219,0.0,0.0,95,0.00,,,0.12,0.0,meteohub,2013-10-24 01:50:00,
2013-10-23 21:55:00,76.8,75.2,29.99,SW,217,0.0,0.0,95,0.00,,,0.12,0.0,meteohub,2013-10-24 01:55:00,
2013-10-23 22:00:00,76.6,74.8,29.99,SW,216,0.0,0.0,94,0.00,,,0.12,0.0,meteohub,2013-10-24 02:00:00,
2013-10-23 22:05:00,76.6,74.8,29.99,SSW,210,0.0,0.0,94,0.00,,,0.12,0.0,meteohub,2013-10-24 02:05:00,
2013-10-23 22:10:00,76.6,74.8,29.99,SW,216,0.0,0.0,94,0.00,,,0.12,0.0,meteohub,2013-10-24 02:10:00,
2013-10-23 22:15:00,76.6,74.8,29.99,SW,217,0.0,0.0,94,0.00,,,0.12,0.0,meteohub,2013-10-24 02:15:00,
2013-10-23 22:20:00,76.8,75.0,29.99,SW,217,0.0,0.0,94,0.00,,,0.12,0.0,meteohub,2013-10-24 02:20:00,
2013-10-23 22:25:00,76.8,75.0,29.99,SW,217,0.0,0.0,94,0.00,,,0.12,0.0,meteohub,2013-10-24 02:25:00,
2013-10-23 22:30:00,77.0,75.2,29.99,SSW,210,0.0,0.0,94,0.00,,,0.12,0.0,meteohub,2013-10-24 02:30:00,
2013-10-23 22:35:00,77.0,75.2,29.99,SW,217,0.0,0.0,94,0.00,,,0.12,0.0,meteohub,2013-10-24 02:35:00,
2013-10-23 22:40:00,77.2,75.4,29.99,SW,217,0.0,0.0,94,0.00,,,0.12,0.0,meteohub,2013-10-24 02:40:00,
2013-10-23 22:45:00,77.2,75.4,30.00,SW,217,0.0,0.0,94,0.00,,,0.12,0.0,meteohub,2013-10-24 02:45:00,
2013-10-23 22:50:00,77.4,75.6,30.00,SW,216,0.0,0.0,94,0.00,,,0.12,0.0,meteohub,2013-10-24 02:50:00,
2013-10-23 22:55:00,77.4,75.6,30.00,SW,217,0.0,0.0,94,0.00,,,0.12,0.0,meteohub,2013-10-24 02:55:00,
2013-10-23 23:00:00,77.4,75.6,30.00,SW,217,0.0,0.0,94,0.00,,,0.12,0.0,meteohub,2013-10-24 03:00:00,
2013-10-23 23:05:00,77.5,75.7,30.00,SW,217,0.0,0.0,94,0.00,,,0.12,0.0,meteohub,2013-10-24 03:05:00,
2013-10-23 23:10:00,77.5,75.7,30.00,SW,217,0.0,0.0,94,0.00,,,0.12,0.0,meteohub,2013-10-24 03:10:00,
2013-10-23 23:15:00,77.5,75.7,29.99,SW,216,0.0,0.0,94,0.00,,,0.12,0.0,meteohub,2013-10-24 03:15:00,
2013-10-23 23:20:00,77.5,75.7,29.99,SW,217,0.0,0.0,94,0.00,,,0.12,0.0,meteohub,2013-10-24 03:20:00,
2013-10-23 23:25:00,77.5,75.7,29.99,SW,217,0.0,0.0,94,0.00,,,0.12,0.0,meteohub,2013-10-24 03:25:00,
2013-10-23 23:30:00,77.7,75.9,29.99,SW,217,0.0,0.0,94,0.00,,,0.12,0.0,meteohub,2013-10-24 03:30:00,
2013-10-23 23:35:00,77.7,75.9,29.99,SW,217,0.0,0.0,94,0.00,,,0.12,0.0,meteohub,2013-10-24 03:35:00,
2013-10-23 23:40:00,77.7,75.9,29.99,SW,217,0.0,0.0,94,0.00,,,0.12,0.0,meteohub,2013-10-24 03:40:00,
2013-10-23 23:45:00,77.7,75.9,29.99,SW,216,0.0,0.0,94,0.00,,,0.12,0.0,meteohub,2013-10-24 03:45:00,
2013-10-23 23:50:00,77.7,75.9,29.99,SW,217,0.0,0.0,94,0.00,,,0.12,0.0,meteohub,2013-10-24 03:50:00,
2013-10-23 23:55:00,77.7,75.9,29.99,SW,216,0.0,0.0,94,0.00,,,0.12,0.0,meteohub,2013-10-24 03:55:00,